StationID,Date,MaxTemp,MinTemp,Precipitation,Snowfall,SnowDepth
"CA001163842","2006-04-01",,,0.00,,
"CA001163842","2006-04-02",,,0.00,,
"CA001163842","2006-04-03",,,0.00,,
"CA001163842","2006-04-04",61.52,36.86,10.00,,
"CA001163842","2006-04-05",70.16,32.18,0.00,,
"CA001163842","2006-04-06",68.18,46.22,0.00,,
"CA001163842","2006-04-07",69.08,26.24,0.00,,
"CA001163842","2006-04-08",66.74,37.22,0.00,,
"CA001163842","2006-04-09",67.82,40.82,0.00,,
"CA001163842","2006-04-10",66.56,39.20,4.00,,
"CA001163842","2006-04-11",65.30,29.30,6.00,,
"CA001163842","2006-04-12",68.72,40.46,0.00,,
"CA001163842","2006-04-13",57.74,31.64,0.00,,
"CA001163842","2006-04-14",60.98,38.84,0.00,,
"CA001163842","2006-04-15",54.86,28.94,6.00,,
"CA001163842","2006-04-16",57.56,35.96,0.00,,
"CA001163842","2006-04-17",60.08,22.46,0.00,,
"CA001163842","2006-04-18",64.76,30.92,0.00,,
"CA001163842","2006-04-19",70.52,40.64,0.00,,
"CA001163842","2006-04-20",74.12,46.22,0.00,,
"CA001163842","2006-04-21",60.98,34.34,0.00,,
"CA001163842","2006-04-22",63.68,30.74,0.00,,
"CA001163842","2006-04-23",71.24,24.98,0.00,,
"CA001163842","2006-04-24",79.34,29.48,0.00,,
"CA001163842","2006-04-25",,34.16,0.00,,
"CA001163842","2006-04-26",,40.10,0.00,,
"CA001163842","2006-04-27",,,0.00,,
"CA001163842","2006-04-28",70.52,42.26,0.00,,
"CA001163842","2006-04-29",75.20,47.12,0.00,,
"CA001163842","2006-04-30",64.22,41.00,0.00,,
"CA001163842","2006-05-01",55.40,39.02,0.00,,
"CA001163842","2006-05-02",62.96,38.48,0.00,,
"CA001163842","2006-05-03",68.18,32.90,0.00,,
"CA001163842","2006-05-04",75.38,33.44,0.00,,
"CA001163842","2006-05-05",76.28,40.64,0.00,,
"CA001163842","2006-05-06",64.58,44.60,0.00,,
"CA001163842","2006-05-07",64.40,46.58,0.00,,
"CA001163842","2006-05-08",,40.28,,,
"CA001163842","2006-05-09",,,0.00,,
"CA001163842","2006-05-10",,,0.00,,
"CA001163842","2006-05-13",,,0.00,,
"CA001163842","2006-05-14",,,0.00,,
"CA001163842","2006-05-15",,,0.00,,
"CA001163842","2006-05-16",,,0.00,,
"CA001163842","2006-05-17",,,0.00,,
"CA001163842","2006-05-18",,,0.00,,
"CA001163842","2006-05-19",,,0.00,,
"CA001163842","2006-05-28",,,0.00,,
"CA001163842","2006-05-30",,,0.00,,
"CA001163842","2006-05-31",,,0.00,,
"CA001163842","2006-08-01",,,0.00,,
"CA001163842","2006-08-02",,,0.00,,
"CA001163842","2006-08-03",,,0.00,,
"CA001163842","2006-08-04",,,0.00,,
"CA001163842","2006-08-05",,,0.00,,
"CA001163842","2006-08-06",,,0.00,,
"CA001163842","2006-08-07",,,0.00,,
"CA001163842","2006-08-08",,,0.00,,
"CA001163842","2006-08-09",,,0.00,,
"CA001163842","2006-08-12",,,0.00,,
"CA001163842","2006-08-13",,,0.00,,
"CA001163842","2006-08-14",,,0.00,,
"CA001163842","2006-08-15",,,0.00,,
"CA001163842","2006-08-16",,,0.00,,
"CA001163842","2006-08-17",,,0.00,,
"CA001163842","2006-08-18",,,0.00,,
"CA001163842","2006-08-19",,,0.00,,
"CA001163842","2006-08-20",,,0.00,,
"CA001163842","2006-08-21",,,0.00,,
"CA001163842","2006-08-22",,,0.00,,
"CA001163842","2006-08-24",,,0.00,,
"CA001163842","2006-08-25",,,0.00,,
"CA001163842","2006-08-26",,,0.00,,
"CA001163842","2006-08-27",,,0.00,,
"CA001163842","2006-08-28",98.24,54.50,0.00,,
"CA001163842","2006-08-29",82.40,57.92,4.00,,
"CA001163842","2006-08-30",69.08,50.18,52.00,,
"CA001163842","2006-08-31",75.20,48.02,0.00,,
"CA001163842","2006-09-01",82.76,44.78,0.00,,
"CA001163842","2006-09-02",89.60,52.34,0.00,,
"CA001163842","2006-09-03",87.08,51.62,0.00,,
"CA001163842","2006-09-04",87.26,57.20,0.00,,
"CA001163842","2006-09-05",91.04,52.16,0.00,,
"CA001163842","2006-09-06",87.80,52.52,0.00,,
"CA001163842","2006-09-07",86.54,50.90,0.00,,
"CA001163842","2006-09-08",85.10,50.36,0.00,,
"CA001163842","2006-09-09",68.36,56.48,92.00,,
"CA001163842","2006-09-10",72.50,49.28,2.00,,
"CA001163842","2006-09-11",81.14,51.26,0.00,,
"CA001163842","2006-09-12",82.94,53.24,0.00,,
"CA001163842","2006-09-13",69.08,48.38,146.00,,
"CA001163842","2006-09-14",53.60,45.50,80.00,,
"CA001163842","2006-09-15",53.96,43.52,16.00,,
"CA001163842","2006-09-16",62.78,44.42,0.00,,
"CA001163842","2006-09-17",65.30,35.60,0.00,,
"CA001163842","2006-09-18",67.28,52.70,36.00,,
"CA001163842","2006-09-19",65.66,47.48,2.00,,
"CA001163842","2006-09-20",65.66,43.52,56.00,,
"CA001163842","2006-09-21",56.12,44.96,18.00,,
"CA001163842","2006-09-22",66.92,40.64,0.00,,
"CA001163842","2006-09-23",68.54,52.88,0.00,,
"CA001163842","2006-09-24",70.34,43.88,0.00,,
"CA001163842","2006-09-25",73.22,43.70,0.00,,
"CA001163842","2006-09-26",74.48,50.36,0.00,,
"CA001163842","2006-09-27",75.92,46.76,0.00,,
"CA001163842","2006-09-28",73.94,47.84,0.00,,
"CA001163842","2006-09-29",75.20,49.10,0.00,,
"CA001163842","2006-09-30",73.40,39.74,0.00,,
"CA001163842","2006-10-01",63.68,48.38,0.00,,
"CA001163842","2006-10-02",63.86,43.34,0.00,,
"CA001163842","2006-10-03",59.72,37.40,0.00,,
"CA001163842","2006-10-04",64.40,32.72,0.00,,
"CA001163842","2006-10-05",61.16,32.00,0.00,,
"CA001163842","2006-10-06",63.86,47.30,0.00,,
"CA001163842","2006-10-07",58.46,39.92,0.00,,
"CA001163842","2006-10-08",62.60,39.92,0.00,,
"CA001163842","2006-10-09",58.64,27.68,0.00,,
"CA001163842","2006-10-10",64.58,32.90,0.00,,
"CA001163842","2006-10-11",64.58,33.62,0.00,,
"CA001163842","2006-10-12",64.76,34.52,0.00,,
"CA001163842","2006-10-13",65.84,39.02,0.00,,
"CA001163842","2006-10-14",52.88,34.88,0.00,,
"CA001163842","2006-10-15",58.64,42.80,24.00,,
"CA001163842","2006-10-16",52.34,45.86,10.00,,
"CA001163842","2006-10-17",53.60,41.72,0.00,,
"CA001163842","2006-10-18",55.40,40.64,0.00,,
"CA001163842","2006-10-19",57.38,41.00,4.00,,
"CA001163842","2006-10-20",60.44,37.58,2.00,,
"CA001163842","2006-10-21",54.14,28.58,0.00,,
"CA001163842","2006-10-22",56.84,34.52,0.00,,
"CA001163842","2006-10-23",52.16,32.00,0.00,,
"CA001163842","2006-10-24",59.54,35.78,0.00,,
"CA001163842","2006-10-25",50.54,30.56,0.00,,
"CA001163842","2006-10-26",56.48,46.94,0.00,,
"CA001163842","2006-10-27",60.62,43.88,0.00,,
"CA001163842","2006-10-28",63.14,46.76,6.00,,
"CA001163842","2006-10-29",47.30,32.00,26.00,,
"CA001163842","2006-10-30",36.68,22.10,0.00,,
"CA001163842","2006-10-31",35.60,18.14,0.00,,
"CA001163842","2006-11-01",36.32,20.66,0.00,,
"CA001163842","2006-11-02",35.78,27.14,0.00,,
"CA001163842","2006-11-03",40.28,33.98,0.00,,
"CA001163842","2006-11-04",51.08,37.22,0.00,,
"CA001163842","2006-11-05",54.68,36.50,0.00,,
"CA001163842","2006-11-06",62.78,45.86,,,
"CA001163842","2006-11-07",62.06,44.42,0.00,,
"CA001163842","2006-11-08",46.58,33.62,0.00,,
"CA001163842","2006-11-09",43.34,29.66,0.00,,80.00
"CA001163842","2006-11-10",41.00,31.64,0.00,,100.00
"CA001163842","2006-11-11",45.14,32.36,0.00,,100.00
"CA001163842","2006-11-12",41.72,34.52,0.00,,110.00
"CA001163842","2006-11-13",47.48,33.98,0.00,,90.00
"CA001163842","2006-11-14",45.86,27.68,0.00,,90.00
"CA001163842","2006-11-15",53.42,39.56,0.00,,100.00
"CA001163842","2006-11-16",53.78,30.20,0.00,,
"CA001163842","2006-11-17",45.14,35.24,0.00,,
"CA001163842","2006-11-18",46.04,39.74,0.00,,
"CA001163842","2006-11-19",54.50,39.74,0.00,,
"CA001163842","2006-11-20",53.24,33.62,0.00,,
"CA001163842","2006-11-21",48.74,37.94,0.00,,
"CA001163842","2006-11-22",44.96,33.62,0.00,,
"CA001163842","2006-11-23",48.20,33.62,0.00,,
"CA001163842","2006-11-25",24.26,18.32,0.00,,
"CA001163842","2006-11-26",18.32,3.56,0.00,,
"CA001163842","2006-11-27",6.26,1.04,0.00,,
"CA001163842","2006-11-28",5.00,-11.38,0.00,,
"CA001163842","2006-11-29",11.66,-13.18,0.00,,
"CA001163842","2006-11-30",19.58,1.58,0.00,,
"CA001163842","2006-12-01",27.68,13.10,,,
"CA001163842","2006-12-02",21.92,13.46,,,
"CA001163842","2006-12-03",29.84,20.66,,,
"CA001163842","2006-12-04",35.06,22.82,,,
"CA001163842","2006-12-05",31.82,26.78,0.00,,
"CA001163842","2006-12-06",33.62,27.86,0.00,,
"CA001163842","2006-12-07",35.96,26.60,0.00,,
"CA001163842","2006-12-08",39.02,33.62,0.00,,
"CA001163842","2006-12-09",37.76,28.04,0.00,,
"CA001163842","2006-12-10",39.20,32.54,0.00,,
"CA001163842","2006-12-11",48.20,36.68,0.00,,
"CA001163842","2006-12-12",47.30,35.06,0.00,,
"CA001163842","2006-12-13",53.24,35.42,0.00,,
"CA001163842","2006-12-14",43.52,27.14,0.00,,
"CA001163842","2006-12-15",43.70,21.92,0.00,,
"CA001163842","2006-12-16",24.44,12.38,0.00,,
"CA001163842","2006-12-17",26.78,16.52,0.00,,
"CA001163842","2006-12-18",33.98,13.10,0.00,,
"CA001163842","2006-12-19",36.14,31.28,0.00,,
"CA001163842","2006-12-20",37.76,32.00,0.00,,
"CA001163842","2006-12-21",47.66,33.80,0.00,,
"CA001163842","2006-12-22",37.22,23.36,0.00,,
"CA001163842","2006-12-23",35.78,20.66,0.00,,
"CA001163842","2006-12-24",38.66,26.96,0.00,,
"CA001163842","2006-12-25",42.26,26.42,0.00,,
"CA001163842","2006-12-26",34.88,20.30,0.00,,
"CA001163842","2006-12-27",35.42,29.12,0.00,,
"CA001163842","2006-12-28",32.90,10.22,0.00,,
"CA001163842","2006-12-29",31.64,14.18,0.00,,
"CA001163842","2006-12-30",27.32,16.34,0.00,,
"CA001163842","2006-12-31",26.78,15.26,0.00,,
"CA001163842","2007-01-01",35.78,16.34,0.00,,
"CA001163842","2007-01-02",50.00,32.18,0.00,,
"CA001163842","2007-01-03",48.92,30.02,0.00,,
"CA001163842","2007-01-04",35.96,24.44,0.00,,
"CA001163842","2007-01-05",37.76,17.96,0.00,,
"CA001163842","2007-01-06",40.82,28.22,0.00,,
"CA001163842","2007-01-07",45.50,31.28,0.00,,
"CA001163842","2007-01-08",43.52,24.98,0.00,,
"CA001163842","2007-01-09",51.26,30.38,0.00,,
"CA001163842","2007-01-10",35.60,8.60,0.00,,
"CA001163842","2007-01-11",10.94,1.04,0.00,,
"CA001163842","2007-01-12",8.60,-2.56,0.00,,
"CA001163842","2007-01-13",17.24,3.74,0.00,,
"CA001163842","2007-01-14",19.04,4.28,0.00,,
"CA001163842","2007-01-15",25.34,9.32,0.00,,
"CA001163842","2007-01-16",26.24,17.60,0.00,,
"CA001163842","2007-01-17",26.78,14.90,0.00,,
"CA001163842","2007-01-18",26.96,19.94,0.00,,
"CA001163842","2007-01-19",30.38,25.70,0.00,,
"CA001163842","2007-01-20",32.54,14.90,0.00,,
"CA001163842","2007-01-21",33.44,13.82,0.00,,
"CA001163842","2007-01-22",37.76,32.18,0.00,,
"CA001163842","2007-01-23",38.66,34.34,0.00,,
"CA001163842","2007-01-24",41.90,33.08,0.00,,
"CA001163842","2007-01-25",37.04,26.78,0.00,,
"CA001163842","2007-01-26",32.54,16.16,0.00,,
"CA001163842","2007-01-27",25.52,10.58,0.00,,
"CA001163842","2007-01-28",23.00,11.66,0.00,,
"CA001163842","2007-01-29",26.78,13.82,0.00,,
"CA001163842","2007-01-30",29.84,12.02,0.00,,
"CA001163842","2007-01-31",28.22,11.66,0.00,,
"CA001163842","2007-02-01",31.10,10.58,0.00,,
"CA001163842","2007-02-02",24.62,7.34,0.00,,
"CA001163842","2007-02-03",22.28,12.92,0.00,,
"CA001163842","2007-02-04",30.74,21.20,0.00,,
"CA001163842","2007-02-05",34.52,25.70,0.00,,
"CA001163842","2007-02-06",34.52,27.32,0.00,,
"CA001163842","2007-02-07",38.12,32.18,0.00,,
"CA001163842","2007-02-08",36.50,33.08,0.00,,
"CA001163842","2007-02-09",36.86,31.82,0.00,,
"CA001163842","2007-02-10",37.22,31.28,0.00,,
"CA001163842","2007-02-11",36.32,33.26,0.00,,
"CA001163842","2007-02-12",36.68,32.90,0.00,,
"CA001163842","2007-02-13",34.16,30.20,0.00,,
"CA001163842","2007-02-14",37.58,29.84,0.00,,
"CA001163842","2007-02-15",43.88,29.12,0.00,,
"CA001163842","2007-02-16",43.70,26.24,0.00,,
"CA001163842","2007-02-17",46.40,35.42,0.00,,
"CA001163842","2007-02-18",50.18,30.92,0.00,,
"CA001163842","2007-02-19",42.98,26.42,0.00,,
"CA001163842","2007-02-20",48.56,31.64,0.00,,
"CA001163842","2007-02-21",47.48,30.92,0.00,,
"CA001163842","2007-02-22",40.28,27.14,0.00,,
"CA001163842","2007-02-23",41.72,22.46,0.00,,
"CA001163842","2007-02-24",39.20,26.24,0.00,,
"CA001163842","2007-02-25",47.12,31.64,0.00,,
"CA001163842","2007-02-26",42.62,35.06,0.00,,
"CA001163842","2007-02-27",44.96,30.02,0.00,,
"CA001163842","2007-02-28",43.34,28.04,0.00,,
"CA001163842","2007-03-01",39.38,23.18,0.00,,
"CA001163842","2007-03-02",38.66,22.10,0.00,,
"CA001163842","2007-03-03",,,0.00,,
"CA001163842","2007-03-04",44.78,28.40,0.00,,
"CA001163842","2007-03-05",46.94,38.12,0.00,,
"CA001163842","2007-03-06",55.94,37.22,0.00,,
"CA001163842","2007-03-07",59.18,40.82,0.00,,
"CA001163842","2007-03-08",52.70,38.48,0.00,,
"CA001163842","2007-03-09",60.98,40.10,0.00,,
"CA001163842","2007-03-10",51.44,42.26,0.00,,
"CA001163842","2007-03-11",58.64,44.42,0.00,,
"CA001163842","2007-03-12",58.28,33.98,0.00,,
"CA001163842","2007-03-13",50.18,30.56,0.00,,
"CA001163842","2007-03-14",45.68,28.76,0.00,,
"CA001163842","2007-03-15",44.96,23.00,0.00,,
"CA001163842","2007-03-16",44.24,32.54,0.00,,
"CA001163842","2007-03-17",57.92,39.92,0.00,,
"CA001163842","2007-03-18",52.52,34.52,0.00,,
"CA001163842","2007-03-19",63.50,42.62,0.00,,
"CA001163842","2007-03-20",50.54,34.52,0.00,,
"CA001163842","2007-03-21",47.66,24.98,0.00,,
"CA001163842","2007-03-22",41.18,31.64,0.00,,
"CA001163842","2007-03-23",50.90,36.68,0.00,,
"CA001163842","2007-03-24",62.24,40.64,0.00,,
"CA001163842","2007-03-25",53.78,28.94,0.00,,
"CA001163842","2007-03-26",57.56,26.60,0.00,,
"CA001163842","2007-03-27",55.76,31.28,0.00,,
"CA001163842","2007-03-28",56.30,26.24,0.00,,
"CA001163842","2007-03-29",58.64,39.02,0.00,,
"CA001163842","2007-03-30",63.32,42.44,0.00,,
"CA001163842","2007-03-31",57.20,32.90,0.00,,
"CA001163842","2007-04-01",44.78,32.54,12.00,,
"CA001163842","2007-04-02",42.08,25.16,2.00,,
"CA001163842","2007-04-03",48.20,19.04,0.00,,
"CA001163842","2007-04-04",47.30,32.18,0.00,,
"CA001163842","2007-04-05",55.94,32.36,0.00,,
"CA001163842","2007-04-06",71.60,37.22,0.00,,
"CA001163842","2007-04-07",75.74,41.72,0.00,,
"CA001163842","2007-04-08",68.72,41.54,8.00,,
"CA001163842","2007-04-09",61.88,47.84,8.00,,
"CA001163842","2007-04-10",54.14,40.46,0.00,,
"CA001163842","2007-04-11",59.90,26.78,0.00,,
"CA001163842","2007-04-12",62.60,29.84,0.00,,
"CA001163842","2007-04-13",54.14,43.34,0.00,,
"CA001163842","2007-04-14",64.22,44.24,0.00,,
"CA001163842","2007-04-15",61.34,31.10,0.00,,
"CA001163842","2007-04-16",55.94,37.76,0.00,,
"CA001163842","2007-04-17",55.22,34.52,0.00,,
"CA001163842","2007-04-18",57.02,28.22,0.00,,
"CA001163842","2007-04-19",60.08,39.38,0.00,,
"CA001163842","2007-04-20",61.16,34.52,0.00,,
"CA001163842","2007-04-21",60.44,29.84,0.00,,
"CA001163842","2007-04-22",63.68,38.66,0.00,,
"CA001163842","2007-04-23",71.06,32.72,0.00,,
"CA001163842","2007-04-24",68.54,47.84,0.00,,
"CA001163842","2007-04-25",58.64,40.10,0.00,,
"CA001163842","2007-04-26",64.22,37.22,0.00,,
"CA001163842","2007-04-27",67.64,44.60,0.00,,
"CA001163842","2007-04-28",63.68,40.64,0.00,,
"CA001163842","2007-04-29",61.88,40.82,0.00,,
"CA001163842","2007-04-30",66.38,34.52,0.00,,
"CA001163842","2007-05-01",63.86,47.84,0.00,,
"CA001163842","2007-05-02",57.74,49.28,6.00,,
"CA001163842","2007-05-03",59.72,33.62,0.00,,
"CA001163842","2007-05-04",64.58,44.06,0.00,,
"CA001163842","2007-05-05",65.84,39.56,0.00,,
"CA001163842","2007-05-06",73.04,35.96,0.00,,
"CA001163842","2007-05-07",67.82,42.44,0.00,,
"CA001163842","2007-05-08",80.24,47.48,0.00,,
"CA001163842","2007-05-09",67.46,43.70,0.00,,
"CA001163842","2007-05-10",73.58,37.76,0.00,,
"CA001163842","2007-05-11",77.54,35.42,0.00,,
"CA001163842","2007-05-12",72.14,49.28,0.00,,
"CA001163842","2007-05-13",76.10,46.22,0.00,,
"CA001163842","2007-05-14",78.08,41.36,0.00,,
"CA001163842","2007-05-15",84.38,44.24,0.00,,
"CA001163842","2007-05-16",78.26,53.06,0.00,,
"CA001163842","2007-05-17",74.30,43.52,0.00,,
"CA001163842","2007-05-18",77.90,50.00,0.00,,
"CA001163842","2007-05-19",68.00,50.00,0.00,,
"CA001163842","2007-05-20",67.28,42.98,0.00,,
"CA001163842","2007-05-21",71.06,46.76,0.00,,
"CA001163842","2007-05-22",,,0.00,,
"CA001163842","2007-05-23",76.82,41.00,0.00,,
"CA001163842","2007-05-24",73.04,48.20,0.00,,
"CA001163842","2007-05-25",80.60,40.46,0.00,,
"CA001163842","2007-05-26",78.26,53.78,0.00,,
"CA001163842","2007-05-27",68.72,53.96,8.00,,
"CA001163842","2007-05-28",72.86,48.56,0.00,,
"CA001163842","2007-05-29",81.32,42.62,0.00,,
"CA001163842","2007-05-30",89.24,54.14,0.00,,
"CA001163842","2007-05-31",88.52,50.18,0.00,,
"CA001163842","2007-06-01",88.88,55.04,0.00,,
"CA001163842","2007-06-02",92.12,55.22,0.00,,
"CA001163842","2007-06-03",95.90,55.58,0.00,,
"CA001163842","2007-06-04",74.66,60.26,40.00,,
"CA001163842","2007-06-05",66.02,51.08,130.00,,
"CA001163842","2007-06-06",60.08,49.28,62.00,,
"CA001163842","2007-06-07",60.98,51.44,0.00,,
"CA001163842","2007-06-08",74.48,50.36,0.00,,
"CA001163842","2007-06-09",67.10,52.16,10.00,,
"CA001163842","2007-06-10",73.04,54.68,2.00,,
"CA001163842","2007-06-11",65.30,43.34,0.00,,
"CA001163842","2007-06-12",71.60,44.06,0.00,,
"CA001163842","2007-06-13",70.88,51.98,0.00,,
"CA001163842","2007-06-14",69.08,49.10,30.00,,
"CA001163842","2007-06-15",75.38,45.68,0.00,,
"CA001163842","2007-06-16",68.90,54.68,2.00,,
"CA001163842","2007-06-17",70.52,54.68,34.00,,
"CA001163842","2007-06-18",71.78,51.80,32.00,,
"CA001163842","2007-06-19",83.12,49.28,0.00,,
"CA001163842","2007-06-20",85.10,57.20,0.00,,
"CA001163842","2007-06-21",77.72,59.90,0.00,,
"CA001163842","2007-06-22",75.74,49.64,0.00,,
"CA001163842","2007-06-23",74.48,45.32,0.00,,
"CA001163842","2007-06-24",71.78,46.40,0.00,,
"CA001163842","2007-06-25",71.24,47.84,8.00,,
"CA001163842","2007-06-26",81.50,48.02,0.00,,
"CA001163842","2007-06-27",85.46,58.28,0.00,,
"CA001163842","2007-06-28",73.94,60.80,0.00,,
"CA001163842","2007-06-29",75.92,56.30,0.00,,
"CA001163842","2007-06-30",78.44,48.02,0.00,,
"CA001163842","2007-07-01",82.58,46.58,0.00,,
"CA001163842","2007-07-02",85.82,55.94,0.00,,
"CA001163842","2007-07-03",85.82,66.38,0.00,,
"CA001163842","2007-07-04",95.72,55.04,0.00,,
"CA001163842","2007-07-05",99.68,58.46,0.00,,
"CA001163842","2007-07-06",88.16,61.34,0.00,,
"CA001163842","2007-07-07",85.46,62.42,0.00,,
"CA001163842","2007-07-08",87.80,55.94,0.00,,
"CA001163842","2007-07-09",83.66,62.78,0.00,,
"CA001163842","2007-07-10",92.66,58.64,0.00,,
"CA001163842","2007-07-11",97.16,63.50,0.00,,
"CA001163842","2007-07-12",100.76,59.72,0.00,,
"CA001163842","2007-07-13",96.26,63.86,10.00,,
"CA001163842","2007-07-14",98.06,60.44,8.00,,
"CA001163842","2007-07-15",91.76,67.28,6.00,,
"CA001163842","2007-07-16",90.14,60.08,0.00,,
"CA001163842","2007-07-17",89.06,59.54,0.00,,
"CA001163842","2007-07-18",77.72,61.34,204.00,,
"CA001163842","2007-07-19",76.10,60.80,2.00,,
"CA001163842","2007-07-20",69.62,56.30,16.00,,
"CA001163842","2007-07-21",79.70,58.28,0.00,,
"CA001163842","2007-07-22",80.06,64.58,12.00,,
"CA001163842","2007-07-23",80.78,62.42,0.00,,
"CA001163842","2007-07-24",81.32,55.04,0.00,,
"CA001163842","2007-07-25",86.00,53.06,0.00,,
"CA001163842","2007-07-26",96.62,55.22,0.00,,
"CA001163842","2007-07-27",93.74,56.48,0.00,,
"CA001163842","2007-07-28",90.86,59.18,0.00,,
"CA001163842","2007-07-29",86.36,57.74,0.00,,
"CA001163842","2007-07-30",83.66,53.06,0.00,,
"CA001163842","2007-07-31",82.76,58.64,0.00,,
"CA001163842","2007-08-01",90.68,52.70,0.00,,
"CA001163842","2007-08-02",97.16,53.24,0.00,,
"CA001163842","2007-08-03",80.42,57.92,0.00,,
"CA001163842","2007-08-04",80.78,56.30,0.00,,
"CA001163842","2007-08-05",86.36,55.04,32.00,,
"CA001163842","2007-08-06",91.22,54.68,2.00,,
"CA001163842","2007-08-07",85.28,60.98,0.00,,
"CA001163842","2007-08-08",79.52,57.20,38.00,,
"CA001163842","2007-08-09",74.48,46.04,0.00,,
"CA001163842","2007-08-10",78.98,55.94,0.00,,
"CA001163842","2007-08-11",74.48,54.14,0.00,,
"CA001163842","2007-08-12",77.36,59.00,0.00,,
"CA001163842","2007-08-13",80.78,47.66,0.00,,
"CA001163842","2007-08-14",85.10,51.80,0.00,,
"CA001163842","2007-08-15",93.38,52.34,0.00,,
"CA001163842","2007-08-16",92.48,52.52,0.00,,
"CA001163842","2007-08-17",83.84,58.46,0.00,,
"CA001163842","2007-08-18",78.98,51.98,0.00,,
"CA001163842","2007-08-19",68.54,55.40,2.00,,
"CA001163842","2007-08-20",71.96,51.80,14.00,,
"CA001163842","2007-08-21",79.52,50.00,,,
"CA001163842","2007-08-22",80.78,49.28,0.00,,
"CA001163842","2007-08-23",83.30,55.40,0.00,,
"CA001163842","2007-08-24",90.14,50.36,0.00,,
"CA001163842","2007-08-25",78.80,57.38,0.00,,
"CA001163842","2007-08-26",67.10,54.14,86.00,,
"CA001163842","2007-08-27",71.96,49.64,0.00,,
"CA001163842","2007-08-28",70.52,46.40,0.00,,
"CA001163842","2007-08-30",91.94,56.84,,,
"CA001163842","2007-08-31",78.08,57.74,0.00,,
"CA001163842","2007-09-01",75.74,50.90,2.00,,
"CA001163842","2007-09-02",65.66,52.70,0.00,,
"CA001163842","2007-09-03",68.72,53.96,2.00,,
"CA001163842","2007-09-04",78.26,52.34,2.00,,
"CA001163842","2007-09-05",75.38,52.88,0.00,,
"CA001163842","2007-09-06",72.32,54.68,0.00,,
"CA001163842","2007-09-07",69.26,,0.00,,
"CA001163842","2007-09-08",73.04,44.06,0.00,,
"CA001163842","2007-09-09",77.18,40.64,0.00,,
"CA001163842","2007-09-10",83.66,46.04,0.00,,
"CA001163842","2007-09-11",85.28,50.54,0.00,,
"CA001163842","2007-09-12",77.18,58.10,0.00,,
"CA001163842","2007-09-13",80.42,45.86,0.00,,
"CA001163842","2007-09-14",79.34,42.26,0.00,,
"CA001163842","2007-09-15",76.82,41.90,0.00,,
"CA001163842","2007-09-16",64.40,46.58,44.00,,
"CA001163842","2007-09-17",63.32,44.78,2.00,,
"CA001163842","2007-09-18",61.16,47.30,2.00,,
"CA001163842","2007-09-19",66.74,48.74,0.00,,
"CA001163842","2007-09-20",62.06,45.50,66.00,,
"CA001163842","2007-09-21",55.40,41.90,8.00,,
"CA001163842","2007-09-22",61.16,41.00,54.00,,
"CA001163842","2007-09-23",63.32,36.68,2.00,,
"CA001163842","2007-09-24",62.42,34.52,0.00,,
"CA001163842","2007-09-25",67.82,39.20,2.00,,
"CA001163842","2007-09-26",67.28,49.10,12.00,,
"CA001163842","2007-09-27",75.02,52.88,0.00,,
"CA001163842","2007-09-28",60.44,45.86,6.00,,
"CA001163842","2007-09-29",55.04,30.38,0.00,,
"CA001163842","2007-09-30",53.06,46.94,0.00,,
"CA001163842","2007-10-01",64.40,39.92,0.00,,
"CA001163842","2007-10-02",58.28,41.72,48.00,,
"CA001163842","2007-10-03",55.04,40.82,0.00,,
"CA001163842","2007-10-04",52.88,37.40,0.00,,
"CA001163842","2007-10-05",55.76,34.52,0.00,,
"CA001163842","2007-10-06",60.26,37.22,0.00,,
"CA001163842","2007-10-07",67.46,50.00,0.00,,
"CA001163842","2007-10-08",57.74,35.06,0.00,,
"CA001163842","2007-10-09",63.32,43.52,0.00,,
"CA001163842","2007-10-10",64.04,45.50,0.00,,
"CA001163842","2007-10-11",57.92,31.64,0.00,,
"CA001163842","2007-10-12",54.14,38.84,0.00,,
"CA001163842","2007-10-13",56.12,32.72,0.00,,
"CA001163842","2007-10-14",58.64,39.56,0.00,,
"CA001163842","2007-10-15",61.88,47.84,0.00,,
"CA001163842","2007-10-16",57.02,47.66,6.00,,
"CA001163842","2007-10-17",55.22,33.98,0.00,,
"CA001163842","2007-10-18",47.12,36.68,68.00,,
"CA001163842","2007-10-19",54.68,37.76,18.00,,
"CA001163842","2007-10-20",54.14,35.78,0.00,,
"CA001163842","2007-10-21",50.36,31.46,2.00,,
"CA001163842","2007-10-22",61.34,42.98,0.00,,
"CA001163842","2007-10-25",50.54,31.64,4.00,,
"CA001163842","2007-10-26",47.30,26.24,0.00,,
"CA001163842","2007-10-27",43.34,29.12,0.00,,
"CA001163842","2007-10-28",49.28,39.02,0.00,,
"CA001163842","2007-10-29",55.04,37.94,10.00,,
"CA001163842","2007-10-30",43.88,26.96,0.00,,
"CA001163842","2007-10-31",47.30,31.28,0.00,,
"CA001163842","2007-11-01",53.06,28.76,0.00,,
"CA001163842","2007-11-02",40.28,27.32,0.00,,
"CA001163842","2007-11-03",57.92,33.80,0.00,,
"CA001163842","2007-11-04",60.44,36.32,0.00,,
"CA001163842","2007-11-05",39.92,32.90,0.00,,
"CA001163842","2007-11-06",40.82,29.12,0.00,,
"CA001163842","2007-11-07",41.54,35.78,0.00,,
"CA001163842","2007-11-08",43.70,40.46,0.00,,
"CA001163842","2007-11-09",60.44,42.98,0.00,,
"CA001163842","2007-11-10",55.04,37.76,0.00,,
"CA001163842","2007-11-11",50.54,36.86,0.00,,
"CA001163842","2007-11-12",53.42,35.06,0.00,,
"CA001163842","2007-11-13",50.90,28.04,0.00,,
"CA001163842","2007-11-14",41.90,22.46,0.00,,
"CA001163842","2007-11-15",44.60,40.10,0.00,,
"CA001163842","2007-11-16",57.20,41.72,0.00,,
"CA001163842","2007-11-17",46.40,35.96,0.00,,